Flag for Germany Weather past 2 weeks in Filderstadt, Baden-Württemberg, Germany

Now
87 °F

Sunny.


Feels Like: 87 °F
Forecast: 65 / 87 °F
Wind: 5 mph from East

Location: Stuttgart-Echterdingen

Current Time: Jul 1, 2015 at 6:21:13 PM

Latest Report: Jul 1, 2015 at 6:00 PM


Visibility: 34 mi

Pressure: 30.00 "Hg

Humidity: 39%

Dew point: 60 °F

Location of FilderstadtLocation

Historic Weather in Filderstadt — Graph

°F

Filderstadt temperature yesterday

Maximum temperature yesterday: 83 °F (at 6:00 PM)
Minimum temperature yesterday: 58 °F (at 6:00 AM)
Average temperature yesterday: 72 °F

Past Weeks' High & Low Weather Summary

 TemperatureHumidityPressure
High87 °F (Jul 1, 4:00 PM)97% (Jun 24, 7:00 AM)30.24 "Hg (Jun 24, 7:00 AM)
Low46 °F (Jun 24, 6:00 AM)29% (Jul 1, 2:00 PM)29.74 "Hg (Jun 22, 9:00 PM)
Average62 °F69%30.09 "Hg
* Reported Jun 16 4:00 PM — Jul 1 4:00 PM, Filderstadt, Weather by CustomWeather, © 2015

Note: Actual official high and low records may vary slightly from our data, if they occured in-between our weather recording intervals... More about our weather records

Advertising

Filderstadt weather history for previous 24 hours

 ConditionsComfort  
Time TempWeatherWind HumidityBarometerVisibility
4:00 PM
Wed, Jul 1
87 °FSunny.3 mph31%30.02 "Hg37 mi
3:00 PM86 °FSunny.3 mph31%30.03 "Hg37 mi
2:00 PM86 °FPassing clouds.3 mph29%30.04 "Hg37 mi
1:00 PM84 °FPassing clouds.3 mph42%30.05 "Hg37 mi
12:00 PM82 °FSunny.3 mph46%30.06 "Hg37 mi
10:00 AM75 °FSunny.1 mph53%30.09 "Hg31 mi
9:00 AM71 °FSunny.1 mph62%30.09 "Hg31 mi
8:00 AM67 °FSunny.1 mph67%30.11 "Hg31 mi
7:00 AM63 °FSunny.1 mph79%30.11 "Hg31 mi
6:00 AM60 °FSunny.1 mph80%30.12 "Hg34 mi
4:00 AM61 °FClear.1 mph75%30.10 "Hg34 mi
3:00 AM63 °FClear.1 mph69%30.10 "Hg34 mi
2:00 AM64 °FClear.2 mph67%30.10 "Hg37 mi
1:00 AM67 °FClear.1 mph61%30.09 "Hg37 mi
12:00 AM68 °FClear.1 mph59%30.10 "Hg37 mi
11:00 PM
Tue, Jun 30
71 °FClear.1 mph55%30.09 "Hg37 mi
10:00 PM75 °FClear.2 mph45%30.07 "Hg37 mi
9:00 PM79 °FSunny.3 mph43%30.05 "Hg37 mi
8:00 PM82 °FPassing clouds.3 mph33%30.03 "Hg37 mi
7:00 PM83 °FPassing clouds.2 mph33%30.03 "Hg37 mi
6:00 PM83 °FPassing clouds.3 mph33%30.04 "Hg37 mi
Weather by CustomWeather, © 2015

See weather overviewHow to use our weather pages